Location: Follega
(52.8850°N, 5.7362°E)
Time: 04:11:04
(UTC+00:00)

Okean 2 - Pass Details

Date: 01 June 2020
Orbit: 560 x 577 km, 82.5° (Epoch: 04 July)

Event Time Altitude Azimuth Distance (km) Brightness Sun altitude
Exits shadow 22:01:56 - 203° (SSW) 1,956 5.7 -12.2°
Reaches altitude 10° 22:02:08 10° 204° (SSW) 1,877 5.6 -12.2°
Maximum altitude 22:06:13 58° 284° (WNW) 674 3.9 -12.5°
Drops below altitude 10° 22:10:22 10° 5° (N) 1,900 7.2 -12.7°
Sets 22:12:36 0° 9° (N) 2,806 8.1 -12.8°
